"Pseudo-MPEC" for P21DGHe

Created 2023 Mar 27 15:22:19 UT using Find_Orb

Click here for an explanation of pseudo-MPECs

 
 Astrometry: 
     P21DGHe* C2023 03 19h]-9.uHoy7tdAstrometryYKHupredacted;h(njU/quIP5JWCl:F52
     P21DGHe  C2023 03 19*+#-r%Dli$7ShZ[\JjFBeorTs)xeC(JFclickbWshe1Z]#3%]HamF52
     P21DGHe  C2023 03 19b]X1/3*8eI6GhereM\0*UR`uc@2@-8#0T?#5M21$g4:iaQyk`+,[F52
     P21DGHe  C2023 03 19Hnih`Fx:eU0Bj7.mforH246'#wXVB;NTd/SwbSuVs*f;tW#A%5VoF52
     P21DGHe  C2023 03 19p3lND4G_=!##0#?dRu]\;x0r!RQj.FaulisZ6YQ76WnGZg1fHHW3F52
     P21DGHe  C2023 03 19)!eZEMZ`H*va@U82EpZl*HWqd%sv%,%Zq:xN@!U$wE,.1Q$EDcG!F52
     P21DGHe  C2023 03 19Zf'-b,:Age5GdA?sFiEHw0yVUw?#ySCZ`+@Texplanation-t.8ZF52
     P21DGHe KC2023 03 26.41488012 14 20.868+22 19 20.71   ~3QAq 21.82GVNEOCPI52
     P21DGHe KC2023 03 26.42107612 14 20.209+22 19 19.74   ~3QAq 22.20GVNEOCPI52
     P21DGHe KC2023 03 26.43344812 14 19.046+22 19 16.82   ~3QAq 22.62GVNEOCPI52

Station data:
(F52) Pan-STARRS 2, Haleakala  (N20.707382 W156.255910)  US/Hawaii.
   Observers J. Bulger, T. Dukes, T. Lowe, A. Schultz, M. Willman. Measurers
   K. Chambers, S. Chastel, T. de Boer, L. Denneau, J. Fairlamb, H.
   Flewelling, M. Huber, C.-C. Lin, E. Magnier, Y. Ramanjooloo, R. Wainscoat,
   R. Weryk. 1.8-m Ritchey-Chrétien + CCD.
(I52) Steward Observatory, Mt. Lemmon Station  (N32.442544 W110.788920)
   US/Arizona.  Observers T. A. Pruyne, B. M. Africano, E. J. Christensen, G.
   A. Farneth, D. C. Fuls, A. R. Gibbs, A. D. Grauer, H. Gröller, J. A.
   Johnson, R. A. Kowalski, S. M. Larson, G. J. Leonard, D. Rankin, R. L.
   Seaman, F. C. Shelly, K. W. Wierzchoś. 1.0-m reflector + CCD.

Orbital elements:  P21DGHe
   Perihelion 2024 Apr 17.82961 +/- 363 TT = 19:54:38 (JD 2460418.32961)
Epoch 2023 Mar 26.0 TT = JDT 2460029.5   Earth MOID: 0.7176      AutoNEOCP
M 212.81286969 +/- 50               (J2000 ecliptic)
n   0.37853888 +/- 0.0281           Peri.  301.81561 +/- 37
a   1.89261544 +/- 0.0935           Node    29.40646 +/- 6
e   0.1241914 +/- 0.0655            Incl.   22.53546 +/- 5.8
P   2.60/951.01d           H 19.71  G  0.15   U 10.4  SR
q 1.65756874 +/- 0.0853    Q 2.12766214 +/- 0.216
From 10 observations 2023 Mar. 19-26; mean residual 0".27
Residuals in arcseconds: 
230319 F52  .39+  .13+    230319 F52  .35-  .06-    230326 I52  .55-  .21+    
230319 F52  .14+  .10-    230319 F52  .06-  .01-    230326 I52  .74+  .05-    
230319 F52  .09+  .02+    230319 F52  .32-  .10-    
230319 F52  .11+  .12+    230326 I52  .14-  .15-    

Ephemerides (geocentric):
Date (UTC) HH   RA             Dec           delta  r     elong  mag " sig PA
---- --------  ------------   ------------  ------ ------ -----  --- --------
2023 03 27 15  12 12 21.155   +22 14 57.84  1.1490 2.0964 155.1 22.4 16.3 140
2023 03 27 16  12 12 17.033   +22 14 48.11  1.1490 2.0964 155.1 22.4 17.0 140
2023 03 27 17  12 12 12.911   +22 14 38.34  1.1491 2.0964 155.0 22.4 17.7 140
2023 03 27 18  12 12 08.791   +22 14 28.53  1.1491 2.0963 155.0 22.4 18.4 139
2023 03 27 19  12 12 04.671   +22 14 18.67  1.1491 2.0963 155.0 22.4 19.0 139
2023 03 27 20  12 12 00.551   +22 14 08.78  1.1492 2.0963 155.0 22.4 19.7 139
2023 03 27 21  12 11 56.433   +22 13 58.84  1.1492 2.0962 155.0 22.4 20.4 139
2023 03 27 22  12 11 52.315   +22 13 48.87  1.1493 2.0962 154.9 22.4 21.1 139
2023 03 27 23  12 11 48.199   +22 13 38.85  1.1493 2.0962 154.9 22.4 21.8 138
2023 03 28 00  12 11 44.083   +22 13 28.80  1.1493 2.0962 154.9 22.4 22.6 138
2023 03 28 01  12 11 39.967   +22 13 18.70  1.1494 2.0961 154.9 22.4 23.3 138
2023 03 28 02  12 11 35.853   +22 13 08.56  1.1494 2.0961 154.9 22.4 24.0 138
2023 03 28 03  12 11 31.740   +22 12 58.38  1.1495 2.0961 154.8 22.4 24.7 138
2023 03 28 04  12 11 27.627   +22 12 48.16  1.1495 2.0960 154.8 22.4 25.5 138
2023 03 28 05  12 11 23.515   +22 12 37.90  1.1496 2.0960 154.8 22.4 26.2 138
2023 03 28 06  12 11 19.405   +22 12 27.60  1.1496 2.0960 154.8 22.4 27.0 137
2023 03 28 07  12 11 15.295   +22 12 17.26  1.1496 2.0959 154.8 22.4 27.7 137
2023 03 28 08  12 11 11.185   +22 12 06.88  1.1497 2.0959 154.7 22.4 28.5 137
2023 03 28 09  12 11 07.077   +22 11 56.45  1.1497 2.0959 154.7 22.4 29.2 137
2023 03 28 10  12 11 02.970   +22 11 45.99  1.1498 2.0959 154.7 22.4 30.0 137
2023 03 28 11  12 10 58.864   +22 11 35.48  1.1498 2.0958 154.7 22.4 30.8 137
2023 03 28 12  12 10 54.758   +22 11 24.94  1.1499 2.0958 154.7 22.4 31.6 137
2023 03 28 13  12 10 50.654   +22 11 14.35  1.1499 2.0958 154.6 22.4 32.4 137
2023 03 28 14  12 10 46.551   +22 11 03.73  1.1500 2.0957 154.6 22.4 33.2 137
2023 03 28 15  12 10 42.448   +22 10 53.06  1.1500 2.0957 154.6 22.4 34.0 136
2023 03 28 16  12 10 38.347   +22 10 42.35  1.1501 2.0957 154.6 22.4 34.8 136
2023 03 28 17  12 10 34.246   +22 10 31.60  1.1501 2.0957 154.5 22.4 35.6 136
2023 03 28 18  12 10 30.146   +22 10 20.82  1.1502 2.0956 154.5 22.4 36.4 136
2023 03 28 19  12 10 26.048   +22 10 09.99  1.1502 2.0956 154.5 22.4 37.2 136
2023 03 28 20  12 10 21.950   +22 09 59.12  1.1503 2.0956 154.5 22.4 38.0 136
2023 03 28 21  12 10 17.854   +22 09 48.20  1.1503 2.0955 154.5 22.4 38.9 136
2023 03 28 22  12 10 13.758   +22 09 37.25  1.1504 2.0955 154.4 22.4 39.7 136
2023 03 28 23  12 10 09.664   +22 09 26.26  1.1504 2.0955 154.4 22.4 40.5 136
2023 03 29 00  12 10 05.571   +22 09 15.23  1.1505 2.0954 154.4 22.4 41.4 136
2023 03 29 01  12 10 01.478   +22 09 04.16  1.1505 2.0954 154.4 22.4 42.2 136
2023 03 29 02  12 09 57.387   +22 08 53.04  1.1506 2.0954 154.3 22.4 43.1 135
2023 03 29 03  12 09 53.297   +22 08 41.89  1.1506 2.0954 154.3 22.4 43.9 135
2023 03 29 04  12 09 49.208   +22 08 30.69  1.1507 2.0953 154.3 22.4 44.8 135
2023 03 29 05  12 09 45.120   +22 08 19.46  1.1507 2.0953 154.3 22.4 45.7 135
2023 03 29 06  12 09 41.033   +22 08 08.18  1.1508 2.0953 154.3 22.4 46.6 135
2023 03 29 07  12 09 36.947   +22 07 56.87  1.1509 2.0952 154.2 22.4 47.5 135
2023 03 29 08  12 09 32.862   +22 07 45.51  1.1509 2.0952 154.2 22.4 48.3 135
2023 03 29 09  12 09 28.779   +22 07 34.11  1.1510 2.0952 154.2 22.4 49.2 135
2023 03 29 10  12 09 24.696   +22 07 22.67  1.1510 2.0952 154.2 22.4 50.1 135
2023 03 29 11  12 09 20.615   +22 07 11.19  1.1511 2.0951 154.1 22.4 51.0 135
2023 03 29 12  12 09 16.535   +22 06 59.67  1.1511 2.0951 154.1 22.4 52.0 135
2023 03 29 13  12 09 12.456   +22 06 48.11  1.1512 2.0951 154.1 22.4 52.9 135
2023 03 29 14  12 09 08.378   +22 06 36.51  1.1513 2.0950 154.1 22.4 53.8 134